Evergreen, AL

9:32 PM CST on December 15, 2017 (GMT -0600)
Middleton

Weather History for KGZH - January, 2013

Change the Weather History Date:

Wednesday, January 16, 2013

  Actual Average (KPRN) Record (KPRN)
Temperature  
Mean Temperature 56 °F -  
Max Temperature 69 °F 58 °F 80 °F (1952)
Min Temperature 43 °F 34 °F 13 °F (1972)
Degree Days  
Heating Degree Days 8    
Growing Degree Days 6 (Base 50)    
Moisture  
Dew Point 51 °F    
Average Humidity 90    
Maximum Humidity 94    
Minimum Humidity 87    
Precipitation  
Precipitation 0.35 in - - ()
Sea Level Pressure  
Sea Level Pressure 30.00 in    
Wind  
Wind Speed 6 mph (NW)    
Max Wind Speed 9 mph    
Max Gust Speed -    
Visibility 7 miles    
Events Rain    
Averages and records for this station are not official NWS values.
T = Trace of Precipitation, MM = Missing Value Source: NWS Daily Summary

Daily Weather History Graph

Daily Weather History Graph

Search for Another Location

Airport or City:

Trip Planner

Search our weather history database for the weather conditions in past years. The results will help you decide how hot, cold, wet, or windy it might be!

Date:

Astronomy

Jan. 16, 2013 Rise Set
Actual Time 6:47 AM CST 5:08 PM CST
Civil Twilight 6:21 AM CST 5:35 PM CST
Nautical Twilight 5:51 AM CST 6:04 PM CST
Astronomical Twilight 5:22 AM CST 6:34 PM CST
Moon 9:47 AM CST 10:34 PM CST
Length of Visible Light 11h 13m
Length of Day
10h 21m
Waxing Crescent, 28% of the Moon is Illuminated
Jan 16
Waxing Crescent
Jan 18
First Quarter
Jan 26
Full
Feb 3
Last Quarter
Feb 10
New

Hourly Weather History & Observations

Time (CST) Temp. Windchill Dew Point Humidity Pressure Visibility Wind Dir Wind Speed Gust Speed Precip Events Conditions
12:10 AM 69.8 °F - 66.2 °F 88% 29.95 in 2.0 mi South 6.9 mph - 0.07 in Rain Heavy Rain
12:21 AM 69.8 °F - 66.2 °F 88% 29.95 in 6.0 mi SSW 6.9 mph - 0.08 in Rain Light Rain
12:53 AM 69.1 °F - 66.0 °F 90% 29.94 in 6.0 mi South 9.2 mph - 0.10 in Rain Light Rain
1:00 AM 69.8 °F - 66.2 °F 88% 29.94 in 3.0 mi SSW 5.8 mph - 0.03 in Rain Rain
1:10 AM 69.8 °F - 66.2 °F 88% 29.95 in 10.0 mi SSW 4.6 mph - 0.04 in Rain Light Rain
1:22 AM 69.8 °F - 66.2 °F 88% 29.95 in 2.0 mi South 5.8 mph - 0.13 in Rain Heavy Rain
1:29 AM 68.0 °F - 66.2 °F 94% 29.94 in 1.2 mi South 6.9 mph - 0.23 in Rain Heavy Rain
1:34 AM 68.0 °F - 66.2 °F 94% 29.95 in 2.0 mi SSW 4.6 mph - 0.25 in Rain Rain
1:41 AM 68.0 °F - 66.2 °F 94% 29.95 in 1.8 mi SW 3.5 mph - 0.30 in Rain Heavy Rain
1:51 AM 69.8 °F - 66.2 °F 88% 29.95 in 2.5 mi SSW 5.8 mph - 0.35 in Rain Rain
2:09 AM 60.8 °F - 57.2 °F 88% 29.96 in 4.0 mi Variable 4.6 mph - 0.03 in Rain Light Rain
2:16 AM 59.0 °F - 57.2 °F 94% 29.97 in 4.0 mi NW 6.9 mph - 0.03 in Rain Light Rain
2:41 AM 57.2 °F - 55.4 °F 94% 29.96 in 10.0 mi Variable 4.6 mph - 0.05 in Rain Light Rain
2:53 AM 57.0 °F - 55.0 °F 93% 29.96 in 4.0 mi NW 3.5 mph - 0.07 in Rain Rain
3:36 AM 53.6 °F - 51.8 °F 94% 29.97 in 10.0 mi NW 4.6 mph - 0.04 in Rain Light Rain
3:53 AM 53.1 °F - 50.0 °F 89% 29.97 in 10.0 mi North 5.8 mph - 0.05 in Rain Light Rain
4:53 AM 50.0 °F - 48.0 °F 93% 29.99 in 3.0 mi NNW 5.8 mph - 0.00 in Rain Light Rain
5:53 AM 50.0 °F - 46.9 °F 89% 30.01 in 6.0 mi NNW 4.6 mph - 0.00 in Rain Light Rain
6:53 AM 48.9 °F - 46.0 °F 90% 30.02 in 10.0 mi NNW 3.5 mph - 0.00 in   Overcast
7:32 AM 48.2 °F - 46.4 °F 93% 30.03 in 8.0 mi North 5.8 mph - N/A   Overcast
7:53 AM 48.9 °F - 46.0 °F 90% 30.04 in 10.0 mi NNW 4.6 mph - N/A   Overcast
8:15 AM 50.0 °F - 46.4 °F 87% 30.04 in 10.0 mi North 3.5 mph - N/A   Overcast
8:42 AM 50.0 °F - 46.4 °F 87% 30.05 in 10.0 mi NNW 6.9 mph - N/A   Overcast
8:53 AM 50.0 °F - 46.9 °F 89% 30.06 in 9.0 mi North 4.6 mph - N/A   Overcast
9:34 AM 50.0 °F - 46.4 °F 87% 30.05 in 4.0 mi North 6.9 mph - N/A   Overcast
9:53 AM 50.0 °F - 46.9 °F 89% 30.05 in 6.0 mi NNW 8.1 mph - N/A   Overcast
10:53 AM 48.9 °F - 46.0 °F 90% 30.03 in 10.0 mi NNW 5.8 mph - N/A   Overcast
11:53 AM 48.9 °F - 46.0 °F 90% 30.01 in 7.0 mi Variable 3.5 mph - 0.01 in   Overcast
12:53 PM 48.9 °F - 46.0 °F 90% 29.99 in 7.0 mi NNW 5.8 mph - 0.00 in Rain Light Rain
1:53 PM 48.9 °F - 46.0 °F 90% 29.99 in 6.0 mi NNW 4.6 mph - 0.01 in Rain Rain
2:53 PM 48.9 °F - 46.0 °F 90% 30.00 in 4.0 mi North 4.6 mph - 0.04 in Rain Light Rain
3:53 PM 48.0 °F - 45.0 °F 89% 30.01 in 10.0 mi NNW 5.8 mph - 0.01 in   Overcast
5:36 PM 46.4 °F 43.5 °F 44.6 °F 93% 30.03 in 6.0 mi North 5.8 mph - N/A   Overcast
5:53 PM 46.0 °F 43.9 °F 44.1 °F 93% 30.04 in 6.0 mi NW 4.6 mph - N/A   Overcast
6:53 PM 46.0 °F 43.9 °F 43.0 °F 89% 30.04 in 10.0 mi NNW 4.6 mph - 0.02 in Rain Light Rain
7:53 PM 46.0 °F 44.8 °F 43.0 °F 89% 30.04 in 10.0 mi North 3.5 mph - 0.01 in Rain Light Rain
8:11 PM 46.4 °F 44.3 °F 42.8 °F 87% 30.03 in 10.0 mi NE 4.6 mph - 0.01 in Rain Light Rain
8:39 PM 46.4 °F - 42.8 °F 87% 30.02 in 10.0 mi Calm Calm - 0.01 in Rain Light Rain
8:53 PM 46.0 °F 44.8 °F 44.1 °F 93% 30.03 in 10.0 mi NW 3.5 mph - 0.01 in Rain Light Rain
9:24 PM 46.4 °F 45.2 °F 44.6 °F 93% 30.00 in 10.0 mi NNE 3.5 mph - 0.01 in Rain Light Rain
9:35 PM 46.4 °F 45.2 °F 44.6 °F 93% 30.01 in 10.0 mi WNW 3.5 mph - 0.01 in   Overcast
9:53 PM 46.0 °F 43.9 °F 43.0 °F 89% 30.03 in 10.0 mi Variable 4.6 mph - 0.01 in   Overcast
10:53 PM 44.1 °F 40.8 °F 42.1 °F 93% 30.03 in 10.0 mi Variable 5.8 mph - 0.00 in Rain Light Rain
11:53 PM 43.0 °F 38.8 °F 41.0 °F 93% 30.03 in 5.0 mi WNW 6.9 mph - 0.01 in   Overcast